TERRA (25994 NORAD) Tracking and Keplerian Element Data

This shows tracking and keplerian element data for the satellite.

Feedback or suggestion? Click here.




ElementValue
Catalog25994
NameTERRA
Epoch Orbit28040
Epoch Day13.13555131
Epoch Year2024
RAAN81.0839
Inclination98.0705
Eccentricity0.000295
Argument of Perigee115.6866
Mean Anonmoly300.7852
Mean Motion14.5953131
Decay Rate8.53E-06
L11 25994U 99068A 24013.13555131 .00000853 00000+0 18904-3 0 9995
L22 25994 98.0705 81.0839 0002950 115.6866 300.7852 14.59531310280409



Live tracking and technical data element details for TERRA (NORAD 25994). TERRA can be tracked NOW for your location showing map with azimuth and elevation plus other details from your city location.







IsCatalogInMostPopularTable: catalog: 25994, numindb: 469
Update: records affected: 1



GetName: 25994 TERRA

Hit Count: updated at: Fri, 19 Apr 2024 11:59:17 GMT